Quenames — WTU9038 — position and weather

sailwx.info

Track history (hours):
 
Tides and Currents Weather Stations Pressure Air Temp Water Temp Dewpoint Dewpoint Depression Visibility Wind Speed Wind Dir Waves Ship Positions

Quenames

Owner: BOSTON MARINE TRANSPORT INC, EAST BOSTON, MA. More information available from US FCC via Universal Licensing System and Coast Guard Vessel Documentation Center.

Last reported at 2014-Nov-21 11:20 UTC. Time now 2014-Nov-21 16:45 UTC.
Position N 40°38' W 073°45'.

Length 23 m.

Type: Tug. MMSI: 367022790.

Date/timePositionNaut miles runAvg speedWind from/ knotsBaromVisibWave heightAir tempDewpointWater temp
2014-Nov-21 11:20N 40°38' W 073°45'0 0.0
2014-Nov-21 04:15N 40°38' W 073°45'0 0.0
2014-Nov-21 03:26N 40°38' W 073°45'0 0.0
2014-Nov-21 02:22N 40°38' W 073°45'0 0.0
2014-Nov-21 01:26N 40°38' W 073°45'0 0.0
2014-Nov-21 00:30N 40°38' W 073°45'0 0.0
2014-Nov-20 23:10N 40°38' W 073°45'0 0.0
2014-Nov-20 22:11N 40°38' W 073°45'0 0.0
2014-Nov-20 21:31N 40°38' W 073°45'0 0.0
2014-Nov-20 18:22N 40°38' W 073°45'0 0.0
2014-Nov-20 17:10N 40°38' W 073°45'0 0.0
2014-Nov-20 12:21N 40°38' W 073°45'0 0.0
2014-Nov-20 11:32N 40°38' W 073°45'0 0.0
2014-Nov-20 10:27N 40°38' W 073°45'0 0.0
2014-Nov-20 07:11N 40°38' W 073°45'0 0.0
2014-Nov-20 06:23N 40°38' W 073°45'0 0.0
2014-Nov-20 05:30N 40°38' W 073°45'0 0.0
2014-Nov-20 04:30N 40°38' W 073°45'0 0.0
2014-Nov-20 03:32N 40°38' W 073°45'0 0.0
2014-Nov-20 02:26N 40°38' W 073°45'0 0.0
2014-Nov-20 01:32N 40°38' W 073°45'0 0.3
2014-Nov-20 00:32N 40°38' W 073°45'4 3.8
2014-Nov-19 23:26N 40°35' W 073°50'1 0.7
2014-Nov-19 22:33N 40°35' W 073°50'5 5.0
2014-Nov-19 21:31N 40°34' W 073°57'6 6.3
2014-Nov-19 20:33N 40°37' W 074°03'6 5.9
2014-Nov-19 19:31N 40°39' W 074°11'7 1.8
2014-Nov-19 15:27N 40°32' W 074°15'1 0.1
2014-Nov-19 06:19N 40°33' W 074°15'0 0.0
2014-Nov-19 05:33N 40°33' W 074°15'0 0.0
2014-Nov-19 04:32N 40°33' W 074°15'0 0.0
2014-Nov-19 03:33N 40°33' W 074°15'1 0.8
2014-Nov-19 02:20N 40°32' W 074°15'1 1.0
2014-Nov-19 01:20N 40°33' W 074°15'2 2.4
2014-Nov-19 00:25N 40°34' W 074°13'2 1.5
2014-Nov-18 23:15N 40°36' W 074°12'5 5.7
2014-Nov-18 22:25N 40°32' W 074°15'0 0.0
2014-Nov-18 19:28N 40°32' W 074°15'0 0.0
2014-Nov-18 18:19N 40°32' W 074°15'0 0.0
2014-Nov-18 17:30N 40°32' W 074°15'0 0.0
2014-Nov-18 16:22N 40°32' W 074°15'6 3.2
2014-Nov-18 14:31N 40°37' W 074°12'6 6.8
2014-Nov-18 13:33N 40°40' W 074°04'9 9.2
2014-Nov-18 12:33N 40°47' W 073°56'17 5.3
2014-Nov-18 09:23N 40°57' W 073°40'18 8.5
2014-Nov-18 07:16N 41°05' W 073°18'7 8.4
2014-Nov-18 06:27N 41°07' W 073°09'7 8.2
2014-Nov-18 05:33N 41°10' W 073°00'7 7.0
2014-Nov-18 04:33N 41°16' W 072°55'2 1.4
2014-Nov-18 03:10N 41°18' W 072°54'3 0.3
2014-Nov-17 18:22N 41°15' W 072°55'2 1.9
2014-Nov-17 17:33N 41°14' W 072°56'0 0.0
2014-Nov-17 16:33N 41°14' W 072°56'0 0.0
2014-Nov-17 14:29N 41°14' W 072°56'0 0.0
2014-Nov-17 13:20N 41°14' W 072°56'0 0.0
2014-Nov-17 12:13N 41°14' W 072°56'0 0.1
2014-Nov-17 11:04N 41°14' W 072°56'1 1.0
2014-Nov-17 10:29N 41°13' W 072°55'7 7.3
2014-Nov-17 09:33N 41°08' W 073°01'7 7.2
2014-Nov-17 08:33N 41°05' W 073°09'8 7.5
2014-Nov-17 07:33N 41°02' W 073°19'8 7.7
2014-Nov-17 06:32N 40°59' W 073°28'11 8.0
2014-Nov-17 05:08N 40°54' W 073°42'7 7.7
2014-Nov-17 04:13N 40°48' W 073°47'5 7.2
2014-Nov-17 03:29N 40°48' W 073°54'5 5.0
2014-Nov-17 02:33N 40°44' W 073°58'2 2.3
2014-Nov-17 01:33N 40°44' W 074°01'9 8.6
2014-Nov-17 00:28N 40°53' W 073°56'8 7.6
2014-Nov-16 23:22N 41°01' W 073°53'  
2014-Nov-14 04:33N 40°49' W 073°58'7 7.5
2014-Nov-14 03:33N 40°42' W 074°02'7 6.8
2014-Nov-14 02:32N 40°39' W 074°10'7 7.0
2014-Nov-14 01:32N 40°33' W 074°15'0 0.0
2014-Nov-13 18:28N 40°33' W 074°15'0 0.0
2014-Nov-13 17:31N 40°33' W 074°15'0 0.0
2014-Nov-13 16:33N 40°33' W 074°15'0 0.0
2014-Nov-13 15:30N 40°33' W 074°15'0 0.0
2014-Nov-13 14:32N 40°33' W 074°15'0 0.0
2014-Nov-13 13:33N 40°33' W 074°15'0 0.1
2014-Nov-13 12:25N 40°33' W 074°15'0 0.0
2014-Nov-13 11:33N 40°33' W 074°15'0 0.0
2014-Nov-13 10:32N 40°33' W 074°15'0 0.0
2014-Nov-13 08:32N 40°33' W 074°15'0 0.0
2014-Nov-13 06:18N 40°33' W 074°15'0 0.0
2014-Nov-13 05:21N 40°33' W 074°15'0 0.0
2014-Nov-13 04:05N 40°33' W 074°15'0 0.0
2014-Nov-13 03:22N 40°33' W 074°15'0 0.0
2014-Nov-13 02:32N 40°33' W 074°15'0 0.0
2014-Nov-13 00:32N 40°33' W 074°15'2 0.4
2014-Nov-12 20:25N 40°34' W 074°13'5 5.5
2014-Nov-12 19:34N 40°38' W 074°12'0 0.0
2014-Nov-12 18:34N 40°38' W 074°12'0 0.0
2014-Nov-12 17:34N 40°38' W 074°12'0 0.0
2014-Nov-12 16:33N 40°38' W 074°12'0 0.0
2014-Nov-12 15:34N 40°38' W 074°12'0 0.0
2014-Nov-12 14:33N 40°38' W 074°12'0 0.0
2014-Nov-12 13:34N 40°38' W 074°12'0 0.0
2014-Nov-12 12:34N 40°38' W 074°12'0 0.0
2014-Nov-12 11:34N 40°38' W 074°12'0 0.0
2014-Nov-12 10:34N 40°38' W 074°12'0 0.0
2014-Nov-12 09:34N 40°38' W 074°12'0 0.0
2014-Nov-12 08:33N 40°38' W 074°12'0 0.0
2014-Nov-12 07:33N 40°38' W 074°12'0 0.0
2014-Nov-12 06:33N 40°38' W 074°12'0 0.0
2014-Nov-12 05:34N 40°38' W 074°12'0 0.0
2014-Nov-12 04:33N 40°38' W 074°12'0 0.0
2014-Nov-12 03:34N 40°38' W 074°12'0 0.0
2014-Nov-12 02:34N 40°38' W 074°12'5 5.1
2014-Nov-12 01:33N 40°33' W 074°14'1 0.9
2014-Nov-12 00:34N 40°33' W 074°15'0 0.0
2014-Nov-11 23:33N 40°33' W 074°15'0 0.0
2014-Nov-11 22:34N 40°33' W 074°15'0 0.0
2014-Nov-11 21:34N 40°33' W 074°15'1 1.1
2014-Nov-11 20:33N 40°32' W 074°15'0 0.0
2014-Nov-11 19:33N 40°32' W 074°15'0 0.0
2014-Nov-11 18:31N 40°32' W 074°15'0 0.0
2014-Nov-11 17:33N 40°32' W 074°15'0 0.0
2014-Nov-11 16:31N 40°32' W 074°15'0 0.0
2014-Nov-11 15:25N 40°32' W 074°15'0 0.0
2014-Nov-11 14:33N 40°32' W 074°15'0 0.0
2014-Nov-11 13:31N 40°32' W 074°15'0 0.1
2014-Nov-11 12:33N 40°32' W 074°15'0 0.1
2014-Nov-11 11:33N 40°32' W 074°15'  
Track history (hours):
 
Tides and Currents Weather Stations Pressure Air Temp Water Temp Dewpoint Dewpoint Depression Visibility Wind Speed Wind Dir Waves Ship Positions

Quenames

Owner: BOSTON MARINE TRANSPORT INC, EAST BOSTON, MA. More information available from US FCC via Universal Licensing System and Coast Guard Vessel Documentation Center.

Last reported at 2014-Nov-21 11:20 UTC. Time now 2014-Nov-21 16:45 UTC.
Position N 40°38' W 073°45'.

Length 23 m.

Type: Tug. MMSI: 367022790.

Date/timePositionNaut miles runAvg speedWind from/ knotsBaromVisibWave heightAir tempDewpointWater temp
2014-Nov-21 11:20N 40°38' W 073°45'0 0.0
2014-Nov-21 04:15N 40°38' W 073°45'0 0.0
2014-Nov-21 03:26N 40°38' W 073°45'0 0.0
2014-Nov-21 02:22N 40°38' W 073°45'0 0.0
2014-Nov-21 01:26N 40°38' W 073°45'0 0.0
2014-Nov-21 00:30N 40°38' W 073°45'0 0.0
2014-Nov-20 23:10N 40°38' W 073°45'0 0.0
2014-Nov-20 22:11N 40°38' W 073°45'0 0.0
2014-Nov-20 21:31N 40°38' W 073°45'0 0.0
2014-Nov-20 18:22N 40°38' W 073°45'0 0.0
2014-Nov-20 17:10N 40°38' W 073°45'0 0.0
2014-Nov-20 12:21N 40°38' W 073°45'0 0.0
2014-Nov-20 11:32N 40°38' W 073°45'0 0.0
2014-Nov-20 10:27N 40°38' W 073°45'0 0.0
2014-Nov-20 07:11N 40°38' W 073°45'0 0.0
2014-Nov-20 06:23N 40°38' W 073°45'0 0.0
2014-Nov-20 05:30N 40°38' W 073°45'0 0.0
2014-Nov-20 04:30N 40°38' W 073°45'0 0.0
2014-Nov-20 03:32N 40°38' W 073°45'0 0.0
2014-Nov-20 02:26N 40°38' W 073°45'0 0.0
2014-Nov-20 01:32N 40°38' W 073°45'0 0.3
2014-Nov-20 00:32N 40°38' W 073°45'4 3.8
2014-Nov-19 23:26N 40°35' W 073°50'1 0.7
2014-Nov-19 22:33N 40°35' W 073°50'5 5.0
2014-Nov-19 21:31N 40°34' W 073°57'6 6.3
2014-Nov-19 20:33N 40°37' W 074°03'6 5.9
2014-Nov-19 19:31N 40°39' W 074°11'7 1.8
2014-Nov-19 15:27N 40°32' W 074°15'1 0.1
2014-Nov-19 06:19N 40°33' W 074°15'0 0.0
2014-Nov-19 05:33N 40°33' W 074°15'0 0.0
2014-Nov-19 04:32N 40°33' W 074°15'0 0.0
2014-Nov-19 03:33N 40°33' W 074°15'1 0.8
2014-Nov-19 02:20N 40°32' W 074°15'1 1.0
2014-Nov-19 01:20N 40°33' W 074°15'2 2.4
2014-Nov-19 00:25N 40°34' W 074°13'2 1.5
2014-Nov-18 23:15N 40°36' W 074°12'5 5.7
2014-Nov-18 22:25N 40°32' W 074°15'0 0.0
2014-Nov-18 19:28N 40°32' W 074°15'0 0.0
2014-Nov-18 18:19N 40°32' W 074°15'0 0.0
2014-Nov-18 17:30N 40°32' W 074°15'0 0.0
2014-Nov-18 16:22N 40°32' W 074°15'6 3.2
2014-Nov-18 14:31N 40°37' W 074°12'6 6.8
2014-Nov-18 13:33N 40°40' W 074°04'9 9.2
2014-Nov-18 12:33N 40°47' W 073°56'17 5.3
2014-Nov-18 09:23N 40°57' W 073°40'18 8.5
2014-Nov-18 07:16N 41°05' W 073°18'7 8.4
2014-Nov-18 06:27N 41°07' W 073°09'7 8.2
2014-Nov-18 05:33N 41°10' W 073°00'7 7.0
2014-Nov-18 04:33N 41°16' W 072°55'2 1.4
2014-Nov-18 03:10N 41°18' W 072°54'3 0.3
2014-Nov-17 18:22N 41°15' W 072°55'2 1.9
2014-Nov-17 17:33N 41°14' W 072°56'0 0.0
2014-Nov-17 16:33N 41°14' W 072°56'0 0.0
2014-Nov-17 14:29N 41°14' W 072°56'0 0.0
2014-Nov-17 13:20N 41°14' W 072°56'0 0.0
2014-Nov-17 12:13N 41°14' W 072°56'0 0.1
2014-Nov-17 11:04N 41°14' W 072°56'1 1.0
2014-Nov-17 10:29N 41°13' W 072°55'7 7.3
2014-Nov-17 09:33N 41°08' W 073°01'7 7.2
2014-Nov-17 08:33N 41°05' W 073°09'8 7.5
2014-Nov-17 07:33N 41°02' W 073°19'8 7.7
2014-Nov-17 06:32N 40°59' W 073°28'11 8.0
2014-Nov-17 05:08N 40°54' W 073°42'7 7.7
2014-Nov-17 04:13N 40°48' W 073°47'5 7.2
2014-Nov-17 03:29N 40°48' W 073°54'5 5.0
2014-Nov-17 02:33N 40°44' W 073°58'2 2.3
2014-Nov-17 01:33N 40°44' W 074°01'9 8.6
2014-Nov-17 00:28N 40°53' W 073°56'8 7.6
2014-Nov-16 23:22N 41°01' W 073°53'  
2014-Nov-14 04:33N 40°49' W 073°58'7 7.5
2014-Nov-14 03:33N 40°42' W 074°02'7 6.8
2014-Nov-14 02:32N 40°39' W 074°10'7 7.0
2014-Nov-14 01:32N 40°33' W 074°15'0 0.0
2014-Nov-13 18:28N 40°33' W 074°15'0 0.0
2014-Nov-13 17:31N 40°33' W 074°15'0 0.0
2014-Nov-13 16:33N 40°33' W 074°15'0 0.0
2014-Nov-13 15:30N 40°33' W 074°15'0 0.0
2014-Nov-13 14:32N 40°33' W 074°15'0 0.0
2014-Nov-13 13:33N 40°33' W 074°15'0 0.1
2014-Nov-13 12:25N 40°33' W 074°15'0 0.0
2014-Nov-13 11:33N 40°33' W 074°15'0 0.0
2014-Nov-13 10:32N 40°33' W 074°15'0 0.0
2014-Nov-13 08:32N 40°33' W 074°15'0 0.0
2014-Nov-13 06:18N 40°33' W 074°15'0 0.0
2014-Nov-13 05:21N 40°33' W 074°15'0 0.0
2014-Nov-13 04:05N 40°33' W 074°15'0 0.0
2014-Nov-13 03:22N 40°33' W 074°15'0 0.0
2014-Nov-13 02:32N 40°33' W 074°15'0 0.0
2014-Nov-13 00:32N 40°33' W 074°15'2 0.4
2014-Nov-12 20:25N 40°34' W 074°13'5 5.5
2014-Nov-12 19:34N 40°38' W 074°12'0 0.0
2014-Nov-12 18:34N 40°38' W 074°12'0 0.0
2014-Nov-12 17:34N 40°38' W 074°12'0 0.0
2014-Nov-12 16:33N 40°38' W 074°12'0 0.0
2014-Nov-12 15:34N 40°38' W 074°12'0 0.0
2014-Nov-12 14:33N 40°38' W 074°12'0 0.0
2014-Nov-12 13:34N 40°38' W 074°12'0 0.0
2014-Nov-12 12:34N 40°38' W 074°12'0 0.0
2014-Nov-12 11:34N 40°38' W 074°12'0 0.0
2014-Nov-12 10:34N 40°38' W 074°12'0 0.0
2014-Nov-12 09:34N 40°38' W 074°12'0 0.0
2014-Nov-12 08:33N 40°38' W 074°12'0 0.0
2014-Nov-12 07:33N 40°38' W 074°12'0 0.0
2014-Nov-12 06:33N 40°38' W 074°12'0 0.0
2014-Nov-12 05:34N 40°38' W 074°12'0 0.0
2014-Nov-12 04:33N 40°38' W 074°12'0 0.0
2014-Nov-12 03:34N 40°38' W 074°12'0 0.0
2014-Nov-12 02:34N 40°38' W 074°12'5 5.1
2014-Nov-12 01:33N 40°33' W 074°14'1 0.9
2014-Nov-12 00:34N 40°33' W 074°15'0 0.0
2014-Nov-11 23:33N 40°33' W 074°15'0 0.0
2014-Nov-11 22:34N 40°33' W 074°15'0 0.0
2014-Nov-11 21:34N 40°33' W 074°15'1 1.1
2014-Nov-11 20:33N 40°32' W 074°15'0 0.0
2014-Nov-11 19:33N 40°32' W 074°15'0 0.0
2014-Nov-11 18:31N 40°32' W 074°15'0 0.0
2014-Nov-11 17:33N 40°32' W 074°15'0 0.0
2014-Nov-11 16:31N 40°32' W 074°15'0 0.0
2014-Nov-11 15:25N 40°32' W 074°15'0 0.0
2014-Nov-11 14:33N 40°32' W 074°15'0 0.0
2014-Nov-11 13:31N 40°32' W 074°15'0 0.1
2014-Nov-11 12:33N 40°32' W 074°15'0 0.1
2014-Nov-11 11:33N 40°32' W 074°15'  

Dump ship's entire track history